• In Uzbekistan
  • List of Countries
  • For 7 days
  • Water Temperature
  • Satellite Maps
  • Weather Map
  • Weather Widgets
  • user-avatar
    Login

    Hourly Weather Giengen an der Brenz

    Today, 21 November, Tuesday

    Time Temperature Precipitation Wind Pressure Humidity
    00:00 +2°C° 0.1 mm 6 mps 719 mmHg 85%
    01:00 +2°C° 0 mm 5 mps 718 mmHg 86%
    02:00 +2°C° 0.2 mm 5 mps 718 mmHg 87%
    03:00 +2°C° 0.2 mm 5 mps 718 mmHg 88%
    04:00 +2°C° 0.2 mm 5 mps 719 mmHg 89%
    05:00 +3°C° 0.1 mm 6 mps 719 mmHg 90%
    06:00 +3°C° 0.1 mm 6 mps 719 mmHg 90%
    07:00 +3°C° 0 mm 6 mps 719 mmHg 89%
    08:00 +3°C° 0.1 mm 6 mps 719 mmHg 89%
    09:00 +4°C° 0.1 mm 6 mps 719 mmHg 88%
    10:00 +4°C° 0.1 mm 6 mps 719 mmHg 87%
    11:00 +5°C° 0.4 mm 5 mps 719 mmHg 86%
    12:00 +5°C° 0.4 mm 5 mps 719 mmHg 85%
    13:00 +6°C° 0.4 mm 5 mps 719 mmHg 85%
    14:00 +6°C° 0 mm 5 mps 719 mmHg 84%
    15:00 +6°C° 0 mm 4 mps 718 mmHg 83%
    16:00 +6°C° 0 mm 4 mps 718 mmHg 82%
    17:00 +5°C° 0 mm 4 mps 718 mmHg 83%
    18:00 +5°C° 0 mm 4 mps 718 mmHg 84%
    19:00 +4°C° 0 mm 3 mps 718 mmHg 85%
    20:00 +4°C° 0 mm 3 mps 718 mmHg 85%
    21:00 +4°C° 0 mm 3 mps 718 mmHg 84%
    22:00 +4°C° 0 mm 3 mps 718 mmHg 84%
    23:00 +3°C° 0 mm 3 mps 718 mmHg 84%

    Tomorrow, 22 November, Wednesday

    Time Temperature Precipitation Wind Pressure Humidity
    00:00 +3°C° 0 mm 3 mps 718 mmHg 84%
    01:00 +3°C° 0 mm 3 mps 718 mmHg 84%
    02:00 +3°C° 0 mm 3 mps 718 mmHg 84%
    03:00 +3°C° 0 mm 3 mps 717 mmHg 84%
    04:00 +3°C° 0 mm 3 mps 717 mmHg 83%
    05:00 +3°C° 0 mm 3 mps 717 mmHg 82%
    06:00 +2°C° 0 mm 3 mps 717 mmHg 82%
    07:00 +2°C° 0 mm 3 mps 717 mmHg 81%
    08:00 +4°C° 0 mm 3 mps 717 mmHg 77%
    09:00 +5°C° 0 mm 3 mps 717 mmHg 74%
    10:00 +7°C° 0 mm 3 mps 717 mmHg 70%
    11:00 +8°C° 0 mm 3 mps 717 mmHg 68%
    12:00 +10°C° 0 mm 3 mps 717 mmHg 65%
    13:00 +11°C° 0 mm 3 mps 717 mmHg 62%
    14:00 +10°C° 0 mm 3 mps 716 mmHg 66%
    15:00 +9°C° 0 mm 2 mps 716 mmHg 71%
    16:00 +8°C° 0 mm 2 mps 716 mmHg 75%
    17:00 +7°C° 0 mm 2 mps 716 mmHg 75%
    18:00 +6°C° 0 mm 2 mps 716 mmHg 75%
    19:00 +5°C° 0 mm 2 mps 716 mmHg 75%
    20:00 +5°C° 0 mm 2 mps 716 mmHg 74%
    21:00 +5°C° 0 mm 2 mps 716 mmHg 72%
    22:00 +5°C° 0 mm 2 mps 715 mmHg 71%
    23:00 +5°C° 0 mm 2 mps 715 mmHg 71%

    Day after tomorrow, 23 November, Thursday

    Time Temperature Precipitation Wind Pressure Humidity
    00:00 +4°C° 0 mm 2 mps 715 mmHg 71%
    01:00 +4°C° 0 mm 2 mps 715 mmHg 71%
    02:00 +4°C° 0 mm 2 mps 715 mmHg 71%
    03:00 +4°C° 0 mm 2 mps 715 mmHg 71%
    04:00 +4°C° 0 mm 2 mps 715 mmHg 71%
    05:00 +3°C° 0 mm 3 mps 715 mmHg 70%
    06:00 +3°C° 0 mm 3 mps 716 mmHg 70%
    07:00 +3°C° 0 mm 3 mps 716 mmHg 70%
    08:00 +4°C° 0 mm 3 mps 716 mmHg 67%
    09:00 +5°C° 0 mm 3 mps 717 mmHg 64%
    10:00 +8°C° 0 mm 3 mps 717 mmHg 62%
    11:00 +8°C° 0 mm 4 mps 717 mmHg 60%
    12:00 +11°C° 0 mm 4 mps 717 mmHg 58%
    13:00 +12°C° 0 mm 4 mps 718 mmHg 57%
    14:00 +11°C° 0 mm 3 mps 718 mmHg 61%
    15:00 +10°C° 0 mm 3 mps 718 mmHg 66%
    16:00 +9°C° 0 mm 3 mps 718 mmHg 71%
    17:00 +8°C° 0 mm 3 mps 718 mmHg 72%
    18:00 +8°C° 0 mm 3 mps 719 mmHg 73%
    19:00 +7°C° 0 mm 3 mps 719 mmHg 74%
    20:00 +7°C° 0 mm 3 mps 719 mmHg 74%
    21:00 +5°C° 0 mm 3 mps 720 mmHg 73%
    22:00 +5°C° 0 mm 3 mps 720 mmHg 72%
    23:00 +5°C° 0 mm 3 mps 720 mmHg 72%

    24 November, Friday

    Time Temperature Precipitation Wind Pressure Humidity
    00:00 +5°C° 0 mm 3 mps 720 mmHg 72%
    01:00 +5°C° 0 mm 3 mps 720 mmHg 71%
    02:00 +6°C° 0 mm 2 mps 720 mmHg 71%
    03:00 +6°C° 0 mm 2 mps 720 mmHg 71%
    04:00 +5°C° 0 mm 2 mps 720 mmHg 70%
    05:00 +5°C° 0 mm 2 mps 720 mmHg 69%
    06:00 +5°C° 0 mm 2 mps 720 mmHg 68%
    07:00 +5°C° 0 mm 2 mps 720 mmHg 67%
    08:00 +6°C° 0 mm 2 mps 720 mmHg 65%
    09:00 +7°C° 0 mm 2 mps 720 mmHg 64%
    10:00 +8°C° 0 mm 2 mps 720 mmHg 62%
    11:00 +9°C° 0 mm 2 mps 719 mmHg 60%
    12:00 +12°C° 0 mm 2 mps 719 mmHg 58%
    13:00 +13°C° 0 mm 2 mps 719 mmHg 55%
    14:00 +12°C° 0 mm 2 mps 719 mmHg 59%
    15:00 +10°C° 0 mm 2 mps 719 mmHg 63%
    16:00 +9°C° 0 mm 2 mps 719 mmHg 67%
    17:00 +9°C° 0 mm 2 mps 719 mmHg 66%
    18:00 +9°C° 0 mm 2 mps 719 mmHg 66%
    19:00 +8°C° 0 mm 2 mps 719 mmHg 65%
    20:00 +8°C° 0 mm 2 mps 719 mmHg 65%
    21:00 +8°C° 0 mm 2 mps 719 mmHg 66%
    22:00 +7°C° 0 mm 2 mps 719 mmHg 66%
    23:00 +7°C° 0 mm 2 mps 719 mmHg 66%

    25 November, Saturday

    Time Temperature Precipitation Wind Pressure Humidity
    00:00 +7°C° 0 mm 2 mps 719 mmHg 67%
    01:00 +7°C° 0 mm 2 mps 718 mmHg 67%
    02:00 +7°C° 0 mm 2 mps 718 mmHg 67%
    03:00 +7°C° 0 mm 2 mps 718 mmHg 66%
    04:00 +7°C° 0 mm 2 mps 718 mmHg 66%
    05:00 +7°C° 0 mm 2 mps 718 mmHg 65%
    06:00 +7°C° 0 mm 2 mps 717 mmHg 65%
    07:00 +7°C° 0 mm 3 mps 717 mmHg 64%
    08:00 +8°C° 0 mm 3 mps 717 mmHg 64%
    09:00 +9°C° 0 mm 3 mps 717 mmHg 63%
    10:00 +9°C° 0 mm 3 mps 716 mmHg 62%
    11:00 +10°C° 0 mm 3 mps 716 mmHg 61%
    12:00 +11°C° 0 mm 3 mps 717 mmHg 61%
    13:00 +12°C° 0 mm 4 mps 717 mmHg 60%
    14:00 +10°C° 0.1 mm 5 mps 717 mmHg 66%
    15:00 +8°C° 0.1 mm 5 mps 718 mmHg 72%
    16:00 +7°C° 0.1 mm 6 mps 719 mmHg 77%
    17:00 +6°C° 0.1 mm 5 mps 719 mmHg 77%
    18:00 +6°C° 0.1 mm 5 mps 720 mmHg 78%
    19:00 +5°C° 0.1 mm 4 mps 721 mmHg 78%
    20:00 +5°C° 0.2 mm 4 mps 721 mmHg 79%
    21:00 +5°C° 0.2 mm 4 mps 722 mmHg 81%
    22:00 +4°C° 0.2 mm 3 mps 722 mmHg 83%
    23:00 +4°C° 0.1 mm 3 mps 722 mmHg 84%

    26 November, Sunday

    Time Temperature Precipitation Wind Pressure Humidity
    00:00 +4°C° 0.1 mm 3 mps 722 mmHg 85%
    01:00 +4°C° 0.1 mm 3 mps 722 mmHg 87%
    02:00 +4°C° 0.1 mm 3 mps 722 mmHg 88%
    03:00 +3°C° 0.1 mm 3 mps 722 mmHg 89%
    04:00 +4°C° 0.1 mm 2 mps 722 mmHg 90%
    05:00 +4°C° 0.2 mm 2 mps 722 mmHg 91%
    06:00 +4°C° 0.2 mm 2 mps 722 mmHg 91%
    07:00 +3°C° 0.2 mm 2 mps 722 mmHg 92%
    08:00 +3°C° 0.2 mm 3 mps 723 mmHg 87%
    09:00 +3°C° 0.2 mm 4 mps 723 mmHg 83%
    10:00 +3°C° 0.2 mm 4 mps 723 mmHg 79%
    11:00 +2°C° 0 mm 5 mps 724 mmHg 74%
    12:00 +3°C° 0 mm 5 mps 724 mmHg 69%
    13:00 +3°C° 0 mm 5 mps 724 mmHg 64%
    14:00 +3°C° 0 mm 5 mps 724 mmHg 67%
    15:00 +3°C° 0 mm 4 mps 724 mmHg 70%
    16:00 +2°C° 0 mm 3 mps 725 mmHg 73%
    17:00 +2°C° 0 mm 3 mps 725 mmHg 77%
    18:00 +1°C° 0 mm 3 mps 726 mmHg 80%
    19:00 0°C° 0 mm 3 mps 726 mmHg 83%
    20:00 -1°C° 0 mm 4 mps 726 mmHg 84%
    21:00 -1°C° 0 mm 4 mps 727 mmHg 85%
    22:00 -1°C° 0 mm 4 mps 727 mmHg 86%
    23:00 -2°C° 0 mm 4 mps 727 mmHg 86%
    Show more